Regional Weather Roundup
Issued by NWS

Home | Current Version | Previous Version | Graphics & Text | Print | Product List | Glossary Off
Versions: 1 2 3 4 5 6 7 8 9 10 11 12 13 14 15 16 17 18 19 20 21 22 23 24 25 26 27 28 29 30 31 32 33 34 35 36 37 38 39 40 41 42 43 44 45 46 47 48 49 50

173
ASUS43 KDMX 241301
RWRIA

WEATHER ROUNDUP FOR IOWA
NATIONAL WEATHER SERVICE DES MOINES IA
700 AM CST FRI FEB 24 2017

NOTE: "FAIR" INDICATES FEW OR NO CLOUDS BELOW 12,000 FEET WITH NO
SIGNIFICANT WEATHER AND/OR OBSTRUCTIONS TO VISIBILITY.

* - THESE STATIONS ARE NOT NWS STATIONS...THUS NOT UNDER NWS
QUALITY CONTROL.  THEY ALSO DO NOT REPORT WEATHER SUCH
AS PRECIPITATION OR FOG.

IAZ001>003-012>014-020>022-031>034-043>046-241400-
   NORTHWEST IOWA

CITY           SKY/WX    TMP DP  RH WIND       PRES   REMARKS
CARROLL *      MIX PCPN  28  28 100 N24       29.67R VSB 1   WCI  14
CHEROKEE *     LGT SNOW  24  23  96 N20G33    29.77R WCI   9
DENISON *      HVY RAIN  27  25  93 N21G32    29.68R WCI  13
LE MARS *      MIX PCPN  25  23  93 N22G32    29.83R VSB 3/4 WCI  10
SHELDON *      MIX PCPN  23  23 100 N24G38    29.80R VSB 1   WCI   7
SIOUX CITY     FOG       27  23  85 N30G39    29.80R VSB 1/2 WCI  11
SPENCER        CLOUDY    23  19  85 N30G38    29.76R FOG     WCI   5
STORM LAKE *   LGT SNOW  23  21  93 N35G47    29.72R WCI   4
$$

IAZ055>058-069>071-079>083-090>094-241400-
   SOUTHWEST IOWA

CITY           SKY/WX    TMP DP  RH WIND       PRES   REMARKS
ATLANTIC *     LGT RAIN  30  28  93 N16G25    29.65R WCI  19
CLARINDA *     CLOUDY    34  34 100 N15G22    29.63F FOG     WCI  24
COUNCIL BLFS * LGT RAIN  30  30 100 N21       29.66R WCI  17
CRESTON *      CLOUDY    34  34 100 N16       29.60R FOG     WCI  23
HARLAN  *      LGT RAIN  28  28 100 N24G31    29.69R WCI  14
LAMONI         CLOUDY    35  33  92 N9        29.54S WCI  28
RED OAK *      LGT SNOW  32  32 100 N14G23    29.64S WCI  22
SHENANDOAH *   CLOUDY    32  32 100 N18G25    29.65R FOG     WCI  20
$$

IAZ047>049-059>061-072>074-084-241400-
   CENTRAL IOWA

CITY           SKY/WX    TMP DP  RH WIND       PRES   REMARKS
AMES           LGT SNOW  32  32 100 N18       29.61R FOG     WCI  20
ANKENY *       LGT RAIN  34  32  93 N12       29.60R WCI  25
BOONE *        LGT RAIN  30  30 100 MISG      29.60R
CHARITON *     CLOUDY    34  34 100 N13       29.54R FOG     WCI  25
DES MOINES     LGT RAIN  35  33  92 N9        29.59R FOG     WCI  28
GRINNELL*      LGT RAIN  32  32  99 NE18G24   29.51S WCI  21
KNOXVILLE *    CLOUDY    34  32  93 N10G18    29.52R FOG     WCI  26
MARSHALLTOWN   CLOUDY    32  31  96 NE25G31   29.54R FOG     WCI  19
NEWTON *       CLOUDY    34  32  93 NE17G24   29.53R FOG     WCI  23
PELLA *        CLOUDY    34  33  96 N7        29.53R FOG     WCI  28
PERRY *        DRIZZLE   32  31  95 N17       29.63R WCI  21
$$

IAZ004>006-015-016-023>025-035-036-241400-
   NORTH CENTRAL IOWA

CITY           SKY/WX    TMP DP  RH WIND       PRES   REMARKS
ALGONA *       LGT SNOW  27  27 100 N22G32    29.69R VSB 3/4 WCI  12
CLARION *      FOG       28  28 100 N26       29.63R VSB<1/4 WCI  13
ESTHERVILLE    CLOUDY    22  20  92 N30       29.75R FOG     WCI   4
FORT DODGE *   CLOUDY    27  23  86 N18G24    29.65R WCI  13
MASON CITY     LGT SNOW  27  27 100 N25       29.64R FOG     WCI  12
FOREST CITY *  MIX PCPN  28  28 100 N21G26    29.66R WCI  15
WEBSTER CITY * SNOW      28  28 100 N24G33    29.60R VSB 1/2 WCI  14
IOWA FALLS *   CLOUDY    31  28  90 N22       29.59R WCI  18
$$

IAZ007>011-017>019-026>030-037>042-050>054-066-241400-
   NORTHEAST IOWA

CITY           SKY/WX    TMP DP  RH WIND       PRES   REMARKS
CEDAR RAPIDS   CLOUDY    33  33 100 NE18      29.47R FOG     WCI  22
CHARLES CITY * CLOUDY    30  30 100 NE22G33   29.58R WCI  17
CLINTON *      CLOUDY    37  36  96 NE20      29.44F FOG     WCI  27
DECORAH *      LGT SNOW  30  28  93 NE13G24   29.57F WCI  20
DUBUQUE        LGT RAIN  32  32 100 NE23      29.49F FOG     WCI  19
MONTICELLO *   MIX PCPN  34  32  93 NE17G23   29.48F WCI  23
OELWEIN *      CLOUDY    32  30  93 NE20G39   29.54R WCI  20
WATERLOO       CLOUDY    32  28  85 NE25G38   29.56R WCI  19
$$

IAZ064-065-067-068-078-241400-
   EAST CENTRAL IOWA

CITY           SKY/WX    TMP DP  RH WIND       PRES   REMARKS
DAVENPORT      CLOUDY    38  36  92 NE16      29.44F WCI  29
IOWA CITY      LGT RAIN  36  34  92 NE15G22   29.47F FOG     WCI  27
MUSCATINE *    CLOUDY    39  37  93 NE17      29.44S WCI  30
QUAD CITIES    CLOUDY    42  38  85 NE10      29.43F FOG
$$

IAZ062-063-075>077-085>089-095>099-241400-
   SOUTHEAST IOWA

CITY           SKY/WX    TMP DP  RH WIND       PRES   REMARKS
BURLINGTON     CLOUDY    42  42 100 N6        29.39F FOG
FAIRFIELD *    CLOUDY    37  36  93 N13       29.44R FOG     WCI  29
KEOKUK *       FOG       43  43 100 W10       29.42R VSB 3/4
OTTUMWA        CLOUDY    36  36 100 N10       29.48R FOG     WCI  28
WASHINGTON *   CLOUDY    37  37 100 NE17      29.45R FOG     WCI  28
$$

ABBREVIATIONS USED IN REMARKS
   TC - TEMPERATURES IN CELSIUS
  WCI - WIND CHILL INDEX
   HX - HEAT INDEX
  VSB - VISIBILITY
$$





USA.gov is the U.S. government's official web portal to all federal, state and local government web resources and services.